RH
26 29 32 36 42 48 50 49 44 41 32 42 52 46 38 44 38 29 39 48 42 35 50 61 44 70 99 98 95 100 99 98 99 88 79 78 81 85 89 90 84 81 64
38 40 42 46 48 51 53 57 52 51 48 43 43 46 49 45 45 48 45 44 50 46 46 61 53 49 76 99 98 100 100 100 98 91 85 82 81 87 90 88 85 82 76
48 50 53 55 57 61 63 64 63 60 56 51 54 51 57 54 51 53 59 58 52 51 43 30 44 60 68 80 95 99 99 100 100 97 84 79 77 83 79 70 72 78 75
59 65 74 81 78 74 70 71 68 70 65 64 64 58 59 63 59 55 58 65 63 57 60 50 50 64 84 77 98 98 99 100 100 99 96 78 67 72 82 62 39 58 67
79 87 96 96 93 83 77 77 73 74 77 74 71 70 67 62 60 64 67 70 78 73 69 58 50 54 60 92 84 88 100 100 100 99 99 90 70 60 56 69 65 62 70
94 98 100 100 92 82 72 78 78 77 80 74 60 58 65 66 65 65 69 76 80 80 77 68 55 54 47 66 85 90 98 99 98 100 100 97 91 70 60 59 71 67 59
100 100 100 100 96 75 76 81 83 87 88 89 68 64 60 64 69 67 65 74 76 80 75 75 75 56 64 46 64 73 92 97 91 99 99 98 99 92 73 55 55 67 78
100 100 99 100 88 77 80 79 64 57 64 78 78 82 76 72 66 67 63 70 72 71 66 69 72 74 66 74 57 73 82 85 92 94 100 100 100 100 90 78 77 76 79
100 100 99 96 93 94 95 81 67 60 72 79 82 85 83 82 74 63 63 64 69 73 75 68 71 63 76 84 81 69 80 93 97 95 99 99 99 100 100 98 75 79 88
100 100 100 99 100 94 97 97 85 71 81 81 78 76 78 80 78 65 64 65 67 74 72 76 77 80 76 79 84 78 69 96 99 99 100 98 100 99 100 100 92 86 84
100 100 100 100 100 100 100 100 80 92 75 84 72 66 70 75 79 75 67 63 52 75 79 78 83 81 79 84 89 89 87 74 77 89 100 100 100 99 100 100 100 94 94
97 99 99 100 99 99 99 100 90 99 95 74 80 78 77 74 77 78 59 35 49 51 66 77 80 80 78 78 86 82 80 81 74 83 82 99 96 100 100 100 100 100 100
83 86 90 93 98 99 99 100 97 94 91 95 78 76 77 75 77 78 78 71 65 75 81 86 84 82 88 90 91 92 90 92 91 92 98 96 92 95 99 99 100 100 100
85 90 89 79 83 96 99 100 100 99 100 100 92 91 87 85 86 84 84 83 68 81 90 90 87 88 84 81 81 87 93 96 94 88 93 94 99 90 80 82 93 99 100
83 92 95 80 69 71 80 95 100 100 100 100 100 100 97 93 96 94 94 91 90 89 87 89 89 89 93 89 84 86 86 88 90 98 94 95 97 95 99 98 91 99 98
83 89 85 68 53 50 67 66 76 98 100 99 100 100 99 100 98 96 97 91 93 91 92 92 88 88 89 86 82 95 94 89 87 91 90 90 90 95 95 97 100 100 86
80 84 85 61 32 30 37 27 50 51 83 100 100 100 100 100 95 96 97 100 99 99 100 99 100 99 96 97 97 99 100 93 93 99 98 90 94 97 94 99 100 100 100
79 84 82 51 26 23 28 17 26 24 38 73 100 100 100 100 100 100 100 100 100 100 100 100 100 100 100 97 86 89 96 99 99 94 99 100 100 99 100 97 98 100 100
81 75 74 34 23 24 34 27 22 21 21 29 50 100 100 100 100 100 100 100 100 100 100 100 100 100 100 100 98 100 100 100 100 99 100 100 100 100 100 100 100 100 100
66 59 55 23 18 21 30 30 25 27 27 35 29 32 88 100 100 100 100 100 100 100 100 100 100 100 100 100 100 100 100 99 100 99 100 100 100 100 100 100 100 100 100
68 57 54 29 18 22 26 27 26 28 38 35 27 21 21 33 59 80 90 92 94 94 93 94 91 95 98 100 100 100 100 100 99 99 100 100 99 99 98 99 99 98 98
61 59 57 32 16 18 22 24 26 30 32 30 30 27 23 21 24 21 24 30 32 34 36 36 37 39 36 58 61 62 67 72 58 57 57 53 67 63 62 59 56 64 67
60 56 58 44 19 20 23 23 24 25 28 27 26 28 29 27 26 26 26 26 27 24 23 26 24 23 22 19 15 16 17 17 17 16 22 20 18 17 16 17 18 18 19
62 58 54 54 22 20 26 28 28 28 30 26 26 30 30 31 30 31 34 30 32 38 38 36 36 36 28 24 23 21 20 18 17 18 21 21 21 23 25 25 27 28 30
68 63 54 52 28 17 21 24 26 28 29 36 34 30 29 29 38 32 33 35 34 36 38 49 50 42 42 40 34 30 25 23 24 26 24 23 23 23 22 23 25 28 31
72 69 62 56 44 15 19 22 22 23 27 34 34 32 34 36 38 56 55 41 43 43 41 41 40 44 39 37 34 32 31 29 27 26 27 34 43 46 44 40 37 39 45
Wind_Speed
18 22 26 29 33 34 35 36 40 40 37 43 40 42 43 41 44 51 46 41 43 43 34 35 37 38 38 40 41 40 39 37 30 24 26 24 24 23 23 23 22 22 25
31 35 35 34 36 37 36 36 37 37 39 40 45 42 39 41 41 42 45 46 41 43 39 33 37 40 39 41 43 42 41 38 39 33 26 18 23 26 27 28 25 24 23
34 33 33 34 35 36 35 34 35 35 37 38 37 39 36 38 39 42 40 42 45 43 46 47 41 36 43 44 43 44 43 43 40 40 30 15 16 24 32 36 31 28 28
32 34 35 36 34 34 32 33 33 34 36 35 36 38 38 39 42 42 39 39 42 45 43 44 42 37 35 44 43 44 44 43 45 43 42 31 14 17 12 32 36 36 32
33 35 37 35 32 31 32 31 31 31 33 33 36 38 40 41 41 38 35 37 37 42 41 44 44 42 43 34 43 42 43 50 46 44 46 43 31 26 21 18 29 30 36
33 35 36 35 31 27 25 24 25 30 32 32 33 38 43 42 39 37 36 35 38 37 40 41 42 41 44 46 36 40 43 47 45 44 46 47 44 34 31 22 24 25 27
37 37 39 37 23 19 19 19 22 29 30 32 34 37 42 44 39 36 36 34 34 38 37 38 37 40 37 41 42 43 42 45 47 47 49 49 49 44 44 35 32 25 21
36 38 39 36 22 16 17 19 22 24 26 28 32 35 40 42 41 38 33 31 32 34 37 36 37 35 34 35 35 39 40 44 44 46 50 46 49 48 48 49 37 28 23
35 35 35 29 24 18 19 18 19 19 20 21 25 29 33 35 38 40 34 31 28 28 29 35 34 35 31 28 32 35 43 41 45 46 45 46 51 50 49 44 46 39 27
35 36 36 33 29 27 19 18 17 18 15 14 15 19 26 31 35 35 37 33 29 26 25 28 31 30 30 30 30 35 36 42 39 41 45 47 46 47 42 47 48 48 40
34 36 37 35 32 27 23 18 19 17 16 15 17 19 22 26 31 33 33 35 34 28 27 26 28 30 28 28 29 31 34 37 45 49 40 43 51 52 49 46 50 51 43
35 38 40 38 35 33 30 25 16 15 15 16 18 21 20 22 26 31 35 39 35 31 30 28 27 28 29 29 29 30 32 36 38 40 44 36 38 43 49 49 49 50 46
29 33 36 40 40 35 31 27 17 15 22 13 15 16 18 19 22 25 26 29 28 25 26 27 27 27 26 27 29 30 31 33 34 36 39 39 39 38 39 43 45 50 47
21 25 28 30 33 35 33 30 23 16 12 16 11 13 16 18 19 21 23 24 25 26 26 26 27 28 31 30 29 28 29 30 33 36 39 39 40 41 42 41 41 43 43
19 22 24 28 29 29 31 31 29 25 19 13 8 10 20 21 20 21 22 23 23 25 26 28 30 29 30 31 30 34 32 32 34 34 37 38 39 38 39 41 40 36 39
15 17 21 24 27 29 29 27 28 30 27 19 15 10 10 19 27 29 21 19 21 22 24 27 31 34 35 35 33 32 30 29 32 37 40 40 38 38 39 38 41 43 45
15 18 19 22 24 26 25 26 25 24 28 32 24 20 18 8 15 18 23 27 26 25 25 27 29 31 32 33 35 35 35 33 32 33 35 36 39 41 38 39 44 41 41
14 16 18 22 23 23 23 23 23 24 26 29 33 27 23 25 24 23 21 22 23 23 23 23 22 23 32 40 36 37 39 43 35 30 33 34 32 38 43 38 41 43 44
12 16 18 21 23 23 21 21 22 22 24 27 27 29 31 26 26 26 23 17 15 14 14 14 16 15 14 22 22 23 20 26 24 16 16 17 21 30 31 31 31 32 25
13 16 17 19 22 22 20 20 21 23 24 24 24 21 22 25 27 26 24 24 24 22 22 22 22 24 18 13 18 18 16 14 12 11 8 11 12 11 12 14 18 21 24
15 15 15 16 20 20 19 19 19 21 22 20 21 20 19 19 17 16 17 17 17 17 18 18 20 20 19 16 15 14 10 10 8 5 2 1 8 13 16 18 17 19 23
14 16 16 15 16 17 17 16 17 18 18 18 19 19 19 17 16 14 13 13 12 13 15 15 16 16 16 13 13 11 9 7 5 4 5 7 10 12 14 16 18 20 23
14 15 15 15 15 15 15 14 15 15 15 15 15 16 16 16 15 15 14 13 13 12 13 13 12 13 13 12 11 10 9 8 6 7 8 8 9 10 11 13 14 16 18
15 14 14 13 13 14 14 14 14 12 11 12 12 13 14 14 16 14 14 14 14 14 13 13 13 12 12 11 11 10 10 10 10 11 11 12 12 13 13 13 15 17 19
17 16 14 13 12 11 12 13 12 9 8 10 10 10 11 12 12 14 16 16 16 15 14 13 13 13 14 15 14 13 13 13 13 11 11 12 13 15 17 18 19 21 22
19 19 16 14 12 10 11 12 11 9 8 7 8 9 9 9 10 9 11 13 13 12 13 12 12 11 11 10 9 10 10 11 12 12 14 17 21 24 26 28 29 29 31
Wind_Direction
295 294 291 285 285 283 279 268 267 262 259 250 246 246 245 246 246 243 238 238 242 242 232 243 238 232 233 233 237 236 230 227 218 212 212 217 224 220 223 227 229 229 233
302 300 296 289 287 284 276 269 262 261 256 252 248 244 243 245 245 243 241 233 233 238 233 226 243 234 233 233 237 236 227 228 220 206 203 214 222 222 223 224 227 226 236
309 305 301 295 290 284 276 268 261 256 255 250 249 246 245 241 240 241 239 234 228 229 234 236 228 238 231 233 230 229 232 226 222 223 208 203 219 217 228 229 229 231 231
313 307 303 299 291 283 279 271 260 256 251 249 248 247 240 236 234 233 234 234 229 226 225 229 230 221 234 236 235 227 229 225 228 222 220 220 212 196 203 232 234 238 237
316 311 307 306 294 282 280 272 260 254 252 248 246 244 240 238 238 235 231 229 229 225 224 227 229 227 220 235 237 233 228 231 237 228 221 216 216 212 224 210 221 238 239
322 317 315 313 299 291 276 270 260 256 253 253 251 247 240 237 236 232 227 224 224 226 225 228 229 231 229 223 231 235 236 238 235 234 236 238 227 217 216 212 209 219 240
332 329 329 328 313 294 284 277 273 269 260 251 254 250 244 234 230 229 225 220 222 224 226 226 228 232 231 234 230 235 238 235 238 239 239 244 237 229 228 217 226 238 243
338 342 345 347 321 308 297 287 276 274 259 253 253 245 237 232 222 222 222 221 223 228 225 224 226 230 235 232 237 232 238 241 244 245 243 247 250 238 228 227 223 220 234
343 345 353 349 341 328 320 304 294 292 277 262 249 242 239 233 226 217 221 223 226 226 227 223 224 230 227 234 229 238 234 235 238 246 248 251 245 252 239 231 229 230 219
351 353 357 357 348 332 318 321 315 305 282 263 249 239 236 231 228 218 214 222 224 225 226 225 223 225 225 226 230 236 242 233 234 245 248 245 244 241 246 238 230 232 223
355 359 4 4 357 353 339 316 309 322 307 269 254 238 234 232 226 219 215 222 228 220 220 224 227 226 227 227 230 232 239 246 240 239 248 247 247 244 243 228 231 234 221
3 11 13 12 6 359 0 2 298 313 298 281 255 245 235 227 224 221 218 223 228 232 227 225 227 229 231 232 238 242 238 244 248 250 246 252 252 247 237 236 236 239 239
3 12 16 16 15 11 12 12 348 283 288 276 262 249 235 221 222 222 225 226 227 229 233 227 226 227 232 236 239 238 237 232 245 248 246 248 249 249 249 249 253 253 257
348 350 358 11 14 18 19 20 16 357 301 304 262 244 228 218 223 222 221 222 226 226 227 229 231 234 242 244 253 243 233 239 237 243 246 249 244 249 251 252 255 255 250
352 351 352 355 2 8 13 20 28 30 19 1 318 253 243 237 221 212 220 220 225 230 235 235 238 239 241 248 248 247 251 240 238 240 246 250 255 257 252 250 247 248 249
342 343 348 351 356 1 2 4 13 18 31 10 19 14 282 256 241 223 213 226 232 234 239 244 247 247 248 253 247 240 235 238 251 248 247 255 257 260 260 261 253 255 258
340 340 344 350 354 355 359 360 5 13 19 33 40 53 68 94 241 229 230 226 230 236 238 242 245 247 248 244 239 237 239 253 262 253 249 252 256 258 254 255 252 261 258
339 340 341 346 352 356 0 4 7 15 21 30 38 53 68 84 108 158 181 195 213 226 231 236 239 240 241 247 245 246 246 248 249 246 253 254 247 247 248 252 259 264 257
331 336 341 345 351 356 4 6 14 23 26 29 39 47 59 75 98 106 109 119 141 140 133 137 133 122 177 210 212 209 212 214 210 220 247 237 222 233 241 242 239 245 252
321 333 342 348 352 359 7 11 16 23 29 30 35 44 58 66 75 85 94 100 102 103 104 101 93 92 112 137 147 178 177 198 201 204 200 218 226 218 238 242 245 253 259
315 328 338 346 350 358 7 12 19 26 26 31 39 45 50 63 70 75 81 80 82 82 78 77 77 78 84 101 117 127 137 132 137 143 136 295 268 276 277 279 281 282 278
304 315 325 337 347 354 0 8 16 24 28 29 33 39 49 53 54 60 66 70 69 69 68 64 64 64 65 68 69 68 66 62 55 29 1 339 319 316 309 306 306 304 302
294 304 313 326 337 346 353 2 8 14 23 24 32 37 42 44 49 51 55 60 60 60 59 57 52 51 51 54 61 67 63 55 35 25 10 351 342 331 323 320 314 312 308
279 290 300 312 324 337 345 350 356 3 12 15 21 29 37 43 47 47 46 49 54 52 54 53 52 44 41 47 50 51 51 49 39 30 18 10 5 358 349 341 336 331 327
273 278 285 296 310 326 334 333 334 344 4 12 21 29 35 39 35 39 40 40 47 45 46 50 43 43 42 39 40 41 41 38 37 30 15 6 360 354 349 345 340 335 331
267 273 279 283 292 307 317 317 315 322 346 11 14 19 30 40 46 56 25 40 38 33 33 35 37 39 45 47 45 42 38 37 27 18 18 16 14 10 3 354 347 343 338